Smyrna, TN

9:42 AM CST on November 23, 2017 (GMT -0600)
Smyrna

Weather History for KMQY - June, 2012

Change the Weather History Date:

Sunday, June 17, 2012

  Actual Average Record
Temperature  
Mean Temperature 79 °F -  
Max Temperature 95 °F 82 °F 99 °F (2007)
Min Temperature 66 °F 66 °F 59 °F (2007)
Cooling Degree Days 14    
Growing Degree Days 29 (Base 50)    
Moisture  
Dew Point 62 °F    
Average Humidity 57    
Maximum Humidity 93    
Minimum Humidity 33    
Precipitation  
Precipitation 0.00 in - - ()
Sea Level Pressure  
Sea Level Pressure 30.03 in    
Wind  
Wind Speed 5 mph (SSW)    
Max Wind Speed 13 mph    
Max Gust Speed 18 mph    
Visibility 10 miles    
Events      
Averages and records for this station are not official NWS values.
T = Trace of Precipitation, MM = Missing Value Source: NWS Daily Summary

Daily Weather History Graph

Daily Weather History Graph

Search for Another Location

Airport or City:

Trip Planner

Search our weather history database for the weather conditions in past years. The results will help you decide how hot, cold, wet, or windy it might be!

Date:

Astronomy

Jun. 17, 2012 Rise Set
Actual Time 5:29 AM CDT 8:05 PM CDT
Civil Twilight 4:58 AM CDT 8:35 PM CDT
Nautical Twilight 4:21 AM CDT 9:13 PM CDT
Astronomical Twilight 3:39 AM CDT 9:55 PM CDT
Moon 3:56 AM CDT (6/17) 6:34 PM CDT (6/17)
Length of Visible Light 15h 36m
Length of Day
14h 36m
Waning Crescent, 3% of the Moon is Illuminated
Jun 17
Waning Crescent
Jun 19
New
Jun 26
First Quarter
Jul 3
Full
Jul 10
Last Quarter

Hourly Weather History & Observations

Time (CDT) Temp. Heat Index Dew Point Humidity Pressure Visibility Wind Dir Wind Speed Gust Speed Precip Events Conditions
12:56 AM 72.0 °F - 66.9 °F 84% 30.07 in 10.0 mi Calm Calm - N/A   Clear
1:56 AM 70.9 °F - 64.9 °F 81% 30.06 in 10.0 mi South 4.6 mph - N/A   Clear
2:56 AM 72.0 °F - 63.9 °F 76% 30.08 in 10.0 mi SSE 3.5 mph - N/A   Clear
3:56 AM 70.0 °F - 64.9 °F 84% 30.08 in 10.0 mi Calm Calm - N/A   Clear
4:56 AM 66.9 °F - 64.9 °F 93% 30.09 in 10.0 mi Calm Calm - N/A   Clear
5:56 AM 68.9 °F - 63.9 °F 84% 30.10 in 10.0 mi SSE 3.5 mph - N/A   Overcast
6:56 AM 72.0 °F - 63.9 °F 76% 30.10 in 10.0 mi SSW 4.6 mph - N/A   Scattered Clouds
7:56 AM 74.8 °F - 63.9 °F 69% 30.11 in 10.0 mi SSW 8.1 mph - N/A   Clear
8:56 AM 79.0 °F - 61.9 °F 56% 30.10 in 10.0 mi SSW 11.5 mph - N/A   Clear
9:56 AM 81.9 °F 83.1 °F 63.0 °F 53% 30.09 in 10.0 mi SW 8.1 mph - N/A   Clear
10:56 AM 84.9 °F 85.4 °F 61.9 °F 46% 30.07 in 10.0 mi SSW 6.9 mph - N/A   Clear
11:56 AM 88.9 °F 88.8 °F 61.0 °F 39% 30.05 in 10.0 mi SSW 12.7 mph - N/A   Clear
12:56 PM 88.0 °F 87.6 °F 59.9 °F 39% 30.04 in 10.0 mi SW 10.4 mph 18.4 mph N/A   Scattered Clouds
1:56 PM 92.8 °F 92.4 °F 59.9 °F 33% 30.01 in 10.0 mi SW 9.2 mph - N/A   Partly Cloudy
2:56 PM 92.8 °F 92.4 °F 59.9 °F 33% 29.99 in 10.0 mi WSW 12.7 mph 16.1 mph N/A   Partly Cloudy
3:56 PM 88.9 °F 88.5 °F 59.9 °F 38% 29.97 in 10.0 mi SW 9.2 mph - N/A   Mostly Cloudy
4:56 PM 90.0 °F 89.4 °F 59.9 °F 36% 29.96 in 10.0 mi WSW 5.8 mph - N/A   Scattered Clouds
5:56 PM 86.9 °F 86.5 °F 59.9 °F 40% 29.95 in 10.0 mi WSW 8.1 mph - N/A   Scattered Clouds
6:56 PM 86.9 °F 86.5 °F 59.9 °F 40% 29.95 in 10.0 mi WSW 9.2 mph - N/A   Clear
7:56 PM 82.9 °F 83.7 °F 61.9 °F 49% 29.95 in 10.0 mi SSW 3.5 mph - N/A   Clear
8:56 PM 81.0 °F 81.1 °F 57.9 °F 45% 29.96 in 10.0 mi SSW 5.8 mph - N/A   Clear
9:56 PM 79.0 °F - 57.9 °F 48% 29.97 in 10.0 mi South 5.8 mph - 0.00 in   Clear
10:56 PM 74.8 °F - 57.9 °F 55% 29.98 in 10.0 mi Calm Calm - N/A   Clear
11:56 PM 70.9 °F - 59.0 °F 66% 29.98 in 10.0 mi Calm Calm - N/A   Clear